Meath Environmental Platform

Observations for Trim Market St

Time AQI Temp °C Hum % Pres Pa CO μg/m³ H₂S μg/m³ NO μg/m³ NO₂ μg/m³ O₃ μg/m³ SO₂ μg/m³ PM1 μg/m³ PM2.5 μg/m³ PM10 μg/m³
Wednesday 26 August 2026
21:59 3 18.4 74 32,945 0.16 0 1.66 10.08 67.65 0 13.54 17.79 27.51
21:58 3 18.4 74 33,247 0.13 0 1.68 11.48 67.27 0 12.11 16.36 25.1
21:57 3 18.4 74 33,564 0.14 0 1.72 12.02 66.71 0 10.69 12.99 19.04
21:55 3 18.4 73 34,228 0.13 0 1.77 9.31 70.63 0 13.54 15.4 23.91
21:54 3 18.5 73 34,491 0.13 0 1.79 12.73 68.27 0 13.54 15.89 23.92
21:50 3 18.5 73 35,001 0.1 0 1.78 9.01 72.91 0 11.4 14.47 20.91
21:49 3 18.5 73 35,388 0.11 0 1.78 10.74 69.09 0 13.54 15.92 24.58
21:46 3 18.6 73 36,752 0.11 0 1.73 11.63 71.61 0 11.4 14.01 19.12
21:39 3 18.7 72 39,992 0.1 0 1.46 11.44 70.07 0 12.83 15.98 24.7
21:35 3 18.8 72 41,562 0.09 0 1.59 11.98 69.49 0 13.54 15.53 22.92
21:34 3 18.8 72 42,017 0.1 0 1.59 11.81 71.11 0 13.54 15.06 22.93
21:33 3 18.9 72 42,600 0.09 0 1.65 15.65 69.16 0 12.83 16.02 23.55
21:32 3 18.9 72 43,178 0.12 0 1.54 9.68 72.14 0 11.4 15.06 21.1
21:31 3 18.9 72 43,744 0.15 0 1.61 16.92 69.32 0 11.4 13.63 19.89
21:30 3 19 72 44,401 0.1 0 1.49 14.82 67.48 0 12.83 15.08 21.74
21:29 3 19 71 44,950 0.11 0 1.64 20.68 64.62 0 12.83 13.64 21.14
21:28 3 19 71 45,524 0.1 0 1.68 17.17 66.14 0 10.69 14.61 24.25
21:27 3 19 71 46,062 0.14 0 1.7 19.05 64.7 0 11.4 14.14 20.54
21:26 3 19.1 71 46,638 0.41 0 1.73 18.71 64.08 0 11.4 15.6 23.04
21:25 3 19.1 71 47,109 0.94 0.21 1.82 25.82 60.33 0 13.54 16.09 23.05